Theta_e
316 315 314 314 314 314 313 312 311 311 311 311 310 309 308 309 309 307 307 307 307 305 306 306 307 307 308 307 306 306 307 306 307 306 305 304 303 302 302 301 301 300
315 316 316 314 314 314 313 313 311 311 311 311 311 309 308 308 307 306 305 304 305 304 305 305 306 306 305 305 305 305 304 304 304 307 303 302 302 301 300 300 300 299
314 313 312 312 312 312 312 313 312 312 312 311 310 308 308 308 306 306 305 303 303 303 303 304 304 305 305 304 304 303 303 302 302 303 304 301 301 300 300 299 299 298
313 313 313 312 312 312 312 312 312 312 312 309 308 309 307 305 303 302 302 306 301 301 302 302 303 303 303 303 303 302 302 302 302 302 302 302 302 300 299 299 299 298
312 312 313 313 313 313 312 312 311 311 309 307 306 305 304 301 301 300 300 300 300 300 300 300 301 301 303 302 302 302 302 301 301 301 300 300 300 300 299 298 297 296
313 313 313 312 312 311 311 310 309 308 305 303 303 303 301 301 300 299 299 298 299 299 299 299 299 300 301 301 301 301 301 300 300 300 299 299 298 299 299 298 296 295
310 310 310 310 310 310 309 308 308 307 305 304 303 301 300 299 298 298 297 297 297 298 297 297 297 298 299 300 300 300 300 300 299 299 298 298 299 297 298 297 297 295
309 309 309 309 308 307 306 306 305 304 304 302 301 300 299 298 297 297 297 296 296 295 296 296 297 297 297 298 299 299 299 301 299 298 298 297 297 296 296 297 295 295
309 308 307 307 306 305 304 304 304 303 303 300 299 299 299 297 297 296 296 295 295 294 295 295 295 295 296 297 297 298 298 298 299 298 297 297 296 295 295 295 295 295
307 306 306 305 304 304 303 303 303 302 302 299 299 298 297 297 296 295 295 294 294 294 293 293 294 294 295 296 296 297 298 298 298 297 297 297 296 295 295 295 294 294
305 305 304 304 303 303 303 303 302 302 301 299 298 297 296 296 296 295 293 293 293 293 293 293 293 293 294 294 295 296 298 298 297 297 296 296 296 296 300 294 295 293
304 303 303 302 302 302 302 302 302 301 299 299 298 296 296 295 294 294 294 292 292 292 292 292 292 292 292 293 294 295 296 297 297 297 296 296 295 295 295 295 294 294
303 303 303 302 302 301 302 301 300 300 299 298 298 297 296 294 294 293 293 292 292 292 292 292 292 292 292 292 293 293 295 296 296 296 296 295 294 295 295 295 294 295
302 302 302 302 302 302 301 301 301 300 299 299 298 297 296 295 294 293 293 293 292 292 292 293 292 292 291 291 292 292 293 294 295 296 295 294 294 294 295 294 295 295
302 302 302 303 302 301 301 301 301 300 299 298 298 297 297 295 294 293 292 291 291 291 291 292 292 292 293 292 291 292 291 293 293 295 295 294 293 293 293 294 294 295
302 302 301 301 301 300 300 300 300 299 298 296 295 295 294 294 293 292 291 291 290 290 291 291 292 293 295 294 295 293 292 292 294 294 294 294 294 293 292 293 293 292
301 301 301 300 300 300 299 300 299 298 296 295 294 294 293 293 292 291 290 290 290 290 290 291 291 293 293 292 292 295 294 292 293 294 294 294 293 292 291 294 292 292
300 300 300 299 299 299 299 299 298 297 296 295 294 293 293 292 291 290 290 290 290 290 290 291 291 294 292 293 293 293 297 295 293 294 295 294 293 292 292 292 291 291
300 299 299 299 299 299 299 299 298 297 296 295 294 294 292 291 290 290 290 290 290 289 289 290 289 293 292 293 293 293 294 296 295 294 294 292 292 291 291 291 291 292
299 299 298 298 298 298 298 298 298 297 297 296 296 294 292 291 290 290 290 290 289 289 289 289 290 292 292 292 293 292 292 294 293 293 293 292 292 292 291 290 291 290
299 298 298 298 298 298 297 297 297 296 297 296 295 294 292 291 290 290 291 291 289 288 289 289 290 292 291 292 292 292 292 293 292 293 293 292 292 292 291 290 290 291
298 298 298 297 297 297 297 296 296 296 296 296 295 294 293 292 291 291 290 289 289 288 288 287 288 291 291 291 292 291 292 292 290 291 290 290 291 291 291 290 291 290
298 298 297 297 297 296 296 296 295 295 295 295 294 294 293 292 291 291 291 290 289 288 287 285 287 290 291 291 291 291 291 289 289 290 289 289 289 291 291 291 291 293
298 298 297 297 296 296 296 295 295 295 294 295 293 293 292 292 292 291 290 291 289 287 287 287 287 291 291 291 291 291 292 288 288 288 288 288 288 289 290 289 291 299
298 297 297 297 296 296 296 295 295 295 295 294 293 292 292 292 294 291 290 289 289 288 296 289 287 291 291 291 291 291 291 287 288 288 288 286 287 289 289 290 290 293
297 298 297 297 296 295 296 296 296 295 293 293 292 292 291 291 292 292 290 290 291 290 292 288 287 287 289 291 291 291 292 288 288 287 288 286 286 290 290 289 289 289
Wind_Speed
7 7 8 9 8 8 8 8 7 8 7 6 7 6 6 5 6 6 6 7 6 7 7 7 7 7 6 6 6 6 6 6 6 7 9 11 11 11 11 11 10 8
8 8 8 8 8 7 7 7 7 8 7 6 6 6 4 6 6 6 6 7 7 7 6 7 6 6 7 6 6 7 7 7 8 7 10 11 9 11 10 10 9 8
8 8 9 9 9 9 9 7 7 7 7 7 6 6 6 6 7 6 6 7 7 7 7 7 7 6 6 6 6 6 7 8 9 9 10 10 9 9 8 8 8 8
8 8 9 9 9 9 7 8 7 7 7 7 6 6 7 6 7 8 7 7 7 7 7 7 7 6 6 6 6 7 7 8 7 9 9 8 8 8 8 7 7 7
9 8 7 8 7 7 7 9 8 8 7 7 7 8 8 8 7 7 7 7 7 7 7 7 7 6 5 5 6 8 8 8 7 8 8 8 7 8 6 7 6 6
8 8 8 8 7 7 7 8 8 8 8 9 8 8 8 8 7 7 7 7 6 7 7 7 7 6 6 6 6 7 7 7 7 8 9 8 7 6 5 5 5 6
7 7 7 6 7 7 9 8 8 8 8 8 8 8 8 8 8 7 7 6 7 6 6 6 6 7 6 6 6 6 6 7 7 8 9 7 7 6 5 5 5 5
6 6 6 6 7 8 8 8 8 8 8 9 10 7 8 9 8 6 6 6 6 6 6 6 6 7 6 7 7 7 6 5 7 9 8 7 6 5 5 4 4 5
7 6 7 7 8 7 9 9 8 9 10 11 9 8 8 8 7 7 6 6 6 6 6 7 6 6 6 7 6 6 6 6 8 8 7 7 6 5 4 4 5 5
7 7 8 8 8 7 9 8 9 9 10 10 9 8 9 7 7 6 6 6 7 7 7 6 7 6 6 6 6 5 6 6 7 7 7 6 6 5 4 4 4 4
7 7 8 8 8 7 8 8 9 9 9 10 9 9 7 7 6 6 7 7 8 7 7 7 6 6 6 6 5 4 5 6 6 7 6 5 4 4 5 4 3 3
7 8 8 8 8 7 8 8 9 9 9 8 10 9 8 7 7 6 7 7 7 6 6 6 5 5 6 5 5 5 5 5 5 6 5 5 4 4 4 3 3 2
7 7 8 7 7 8 8 9 10 9 9 9 8 9 8 7 7 8 6 7 6 6 6 5 5 5 5 5 5 5 5 5 4 5 5 4 4 4 4 3 2 1
6 6 7 7 7 7 8 9 9 9 9 8 8 8 8 7 7 8 6 6 6 6 4 4 5 6 5 5 5 4 4 4 4 4 5 4 3 3 3 2 2 1
6 5 6 6 7 8 8 8 9 9 9 8 8 8 7 6 6 7 7 7 6 6 5 5 6 5 4 4 3 3 3 3 3 3 4 4 3 4 3 2 1 0
6 6 6 7 7 8 8 9 9 9 9 9 8 8 7 7 7 6 7 6 7 6 5 6 5 4 5 6 4 1 2 1 1 2 3 4 4 4 3 1 1 2
7 6 6 7 7 7 8 10 10 9 9 9 8 8 8 7 7 7 6 6 6 6 6 6 5 4 7 4 5 5 1 2 3 3 3 4 4 4 2 0 1 1
6 6 7 7 7 8 9 9 9 10 9 8 8 8 7 6 7 6 6 5 6 6 6 5 5 6 6 10 10 10 7 4 3 3 2 5 4 4 2 1 0 1
7 8 7 7 7 8 8 9 9 9 9 9 9 7 7 8 6 6 6 5 6 7 6 4 4 7 9 11 11 11 11 8 6 5 4 3 4 3 3 1 0 1
8 8 8 7 7 7 8 9 9 8 7 7 8 7 8 7 6 7 5 6 6 6 5 4 5 6 9 11 10 10 10 8 5 5 5 4 2 2 2 2 0 1
8 8 8 7 7 7 7 8 8 8 8 8 8 8 8 8 7 6 5 5 5 4 5 5 4 6 10 11 10 10 9 7 5 5 5 3 1 0 2 3 2 1
9 9 8 8 8 7 7 7 7 8 8 7 7 6 5 6 5 6 6 5 4 4 5 5 4 8 10 10 10 9 8 5 4 5 4 3 3 3 2 3 4 4
10 10 9 8 8 8 7 7 7 7 7 7 8 7 7 6 6 5 5 5 4 4 5 4 4 5 8 8 8 7 6 5 4 4 3 3 3 3 3 3 4 4
9 10 10 9 8 8 8 6 6 5 6 6 9 8 7 6 5 5 5 5 5 4 4 4 2 2 6 7 7 7 5 4 3 4 4 3 3 2 2 3 4 9
9 9 9 9 9 8 8 8 8 7 6 6 7 7 7 6 6 6 4 4 4 4 5 5 3 2 5 6 7 6 4 3 3 5 5 4 3 4 4 4 6 6
8 9 8 9 9 8 8 9 7 7 7 7 6 7 7 6 6 6 6 5 4 4 3 4 4 2 3 6 6 5 4 3 3 6 4 3 3 2 5 6 5 6
Wind_Direction
99 100 101 99 100 105 112 114 110 106 100 93 87 84 86 83 73 70 62 56 54 54 49 52 53 53 50 47 48 50 46 49 50 49 54 59 58 58 54 49 47 47
101 101 102 102 103 105 107 111 115 110 100 86 87 89 83 82 68 72 65 60 55 52 51 50 51 54 52 50 46 53 50 50 53 52 64 64 63 60 56 53 52 45
104 102 105 107 111 114 114 113 110 101 93 88 90 86 79 73 71 64 64 63 58 51 48 47 48 47 51 54 55 57 57 57 60 62 67 67 64 64 58 58 53 48
104 106 109 110 114 118 119 114 100 89 88 89 84 79 80 78 75 68 60 58 59 54 49 46 43 40 47 53 61 61 64 65 67 70 70 68 66 68 62 60 58 53
114 111 111 112 115 115 116 107 95 85 85 92 86 82 81 78 74 68 67 58 56 55 50 46 42 39 36 45 58 67 65 67 63 70 73 71 67 70 66 66 60 55
111 114 117 119 116 112 105 99 96 99 103 95 95 90 86 84 79 76 68 65 57 57 55 50 47 41 37 41 49 64 71 70 66 73 74 75 71 66 70 67 61 52
119 119 116 108 100 99 100 98 103 104 98 103 93 88 91 83 80 75 71 70 66 61 60 56 52 45 38 45 51 57 67 74 70 70 76 77 78 71 64 62 53 49
115 106 103 100 99 99 102 104 102 101 105 96 92 91 91 88 82 78 75 74 74 69 65 62 57 52 43 48 51 55 57 70 73 76 82 83 82 75 62 56 55 52
109 110 109 106 106 106 106 106 103 103 102 99 97 93 86 88 90 86 83 82 78 69 66 58 53 54 47 54 51 52 56 66 79 86 92 91 81 76 70 62 53 45
117 119 114 116 113 112 110 107 105 104 103 100 101 98 94 89 89 90 87 81 77 69 64 61 53 50 52 51 50 50 57 66 83 89 92 91 90 82 73 69 64 50
122 120 118 116 114 112 110 106 105 106 105 107 105 99 100 100 89 84 81 73 72 71 68 61 55 53 56 49 45 48 61 67 83 91 91 93 96 92 82 81 73 76
121 118 117 118 118 115 114 110 111 110 108 107 106 104 98 91 91 82 79 79 75 73 72 69 61 58 57 53 46 45 53 62 80 97 98 98 94 93 93 90 103 87
122 120 120 120 119 120 117 114 114 115 112 111 108 106 103 98 90 87 76 80 77 74 69 69 66 60 56 48 47 44 50 60 72 100 101 97 103 105 98 98 105 124
120 117 116 118 119 119 116 117 117 115 113 112 108 103 101 99 94 88 83 78 74 75 72 71 67 58 49 46 47 43 47 57 61 99 106 104 94 68 74 104 129 136
115 114 115 117 118 116 115 114 114 115 114 110 103 102 98 95 92 89 88 80 71 70 65 57 58 48 43 36 35 42 47 50 58 91 125 120 92 60 64 60 16 304
119 118 120 119 113 112 112 113 116 116 111 106 104 102 101 96 89 84 81 82 79 66 61 56 51 42 28 23 22 39 49 39 49 102 135 127 105 90 54 21 346 340
125 125 122 117 117 112 110 113 117 116 114 112 112 108 101 96 91 84 79 76 75 72 62 55 43 30 15 39 54 51 58 34 28 46 130 126 119 112 124 326 314 297
127 126 121 123 119 115 113 117 120 120 120 119 114 107 102 97 89 86 85 80 79 72 65 55 47 18 36 49 46 48 56 63 58 58 117 136 128 131 161 200 288 302
130 128 128 126 123 120 118 119 121 123 125 122 118 117 111 101 102 92 82 77 75 73 63 50 48 22 47 55 54 53 53 59 48 65 88 99 125 147 180 198 241 318
134 132 132 132 128 124 121 121 124 126 127 124 121 115 112 111 107 98 92 81 80 79 73 58 50 30 59 62 61 59 59 61 55 63 75 89 122 187 209 206 239 307
139 137 137 137 132 128 124 123 124 125 126 130 129 130 130 129 120 109 99 91 85 85 80 65 45 45 65 64 61 62 65 69 58 66 67 62 39 282 269 276 271 297
144 143 142 140 137 133 130 132 132 131 128 129 125 124 118 112 110 111 110 103 94 84 81 68 44 49 61 57 54 54 67 69 69 69 67 55 30 347 308 272 271 303
149 147 147 147 145 141 141 142 139 135 127 123 122 131 130 131 139 132 130 119 107 97 91 76 56 50 63 61 54 55 63 66 69 73 70 60 25 353 332 308 307 297
153 151 151 152 150 151 150 148 142 133 134 129 130 136 136 145 143 133 136 133 128 127 124 108 92 57 78 68 68 67 73 79 80 85 66 42 0 343 332 324 307 329
155 153 154 154 156 157 154 150 150 149 145 131 132 131 138 142 139 140 139 139 144 154 146 129 127 72 71 72 63 60 72 79 88 82 64 22 4 348 338 352 339 334
157 155 154 157 158 155 152 152 149 139 144 139 139 137 140 142 141 141 143 156 161 162 154 152 126 94 72 79 69 62 78 87 69 68 52 13 348 350 350 335 334 333